QPF
0.00 0.00 0.00 0.00 0.00 0.00 0.00 0.00 0.00 0.00 0.00 0.00 0.00 0.00 0.00 0.00 0.00 0.00 0.00 0.00 0.00 0.00 0.00 0.00 0.00 0.00 0.00 0.00 0.00 0.00 0.00 0.00 0.02 0.03 0.03 0.01 0.00 0.00 0.00 0.00 0.00 0.00 0.00 0.00 0.00 0.00 0.01 0.02 0.01 0.02 0.02 0.00 0.00 0.00 0.00 0.00 0.02 0.03 0.05 0.07 0.07 0.10 0.15 0.19 0.20 0.20 0.19 0.16 0.14
0.00 0.00 0.00 0.00 0.00 0.00 0.00 0.00 0.00 0.00 0.00 0.00 0.00 0.00 0.00 0.00 0.00 0.00 0.00 0.00 0.00 0.00 0.00 0.00 0.00 0.00 0.00 0.00 0.00 0.00 0.01 0.03 0.03 0.03 0.02 0.00 0.00 0.00 0.00 0.00 0.00 0.00 0.00 0.00 0.00 0.01 0.02 0.01 0.01 0.01 0.00 0.00 0.00 0.00 0.00 0.00 0.02 0.03 0.04 0.05 0.05 0.08 0.12 0.15 0.18 0.19 0.18 0.16 0.15
0.00 0.00 0.00 0.00 0.00 0.00 0.00 0.00 0.00 0.00 0.00 0.00 0.00 0.00 0.00 0.00 0.00 0.00 0.00 0.00 0.00 0.00 0.00 0.00 0.00 0.00 0.00 0.00 0.00 0.01 0.02 0.03 0.02 0.01 0.00 0.00 0.00 0.00 0.00 0.00 0.00 0.00 0.00 0.00 0.00 0.00 0.00 0.01 0.00 0.00 0.00 0.00 0.00 0.01 0.01 0.01 0.03 0.04 0.05 0.04 0.06 0.08 0.09 0.10 0.12 0.13 0.14 0.14 0.14
0.00 0.00 0.00 0.00 0.00 0.00 0.00 0.00 0.00 0.00 0.00 0.00 0.00 0.00 0.00 0.00 0.00 0.00 0.00 0.00 0.00 0.00 0.00 0.00 0.00 0.00 0.00 0.00 0.00 0.02 0.03 0.01 0.01 0.01 0.00 0.00 0.00 0.00 0.00 0.00 0.00 0.00 0.00 0.00 0.00 0.01 0.01 0.01 0.01 0.01 0.01 0.01 0.02 0.03 0.03 0.03 0.06 0.09 0.10 0.09 0.11 0.11 0.10 0.09 0.09 0.10 0.11 0.14 0.14
0.00 0.00 0.00 0.00 0.00 0.00 0.00 0.00 0.00 0.00 0.00 0.00 0.00 0.00 0.00 0.00 0.00 0.00 0.00 0.00 0.00 0.00 0.00 0.00 0.00 0.00 0.00 0.01 0.02 0.02 0.01 0.00 0.00 0.00 0.00 0.00 0.00 0.00 0.00 0.00 0.00 0.00 0.00 0.00 0.00 0.01 0.02 0.01 0.01 0.01 0.02 0.02 0.03 0.03 0.03 0.03 0.07 0.08 0.09 0.10 0.10 0.11 0.10 0.10 0.10 0.10 0.11 0.12 0.20
0.00 0.00 0.00 0.00 0.00 0.00 0.00 0.00 0.00 0.00 0.00 0.00 0.00 0.00 0.00 0.00 0.00 0.00 0.00 0.00 0.00 0.00 0.00 0.01 0.00 0.00 0.01 0.01 0.02 0.01 0.00 0.00 0.00 0.00 0.00 0.00 0.00 0.00 0.00 0.00 0.00 0.00 0.00 0.00 0.00 0.00 0.00 0.01 0.01 0.01 0.01 0.02 0.02 0.03 0.03 0.03 0.06 0.08 0.10 0.11 0.10 0.11 0.12 0.13 0.15 0.16 0.17 0.19 0.24
0.00 0.00 0.00 0.00 0.00 0.00 0.00 0.00 0.00 0.00 0.00 0.00 0.00 0.00 0.00 0.00 0.00 0.00 0.00 0.00 0.00 0.00 0.00 0.01 0.00 0.01 0.01 0.02 0.02 0.01 0.00 0.00 0.00 0.00 0.00 0.00 0.00 0.00 0.00 0.00 0.00 0.00 0.00 0.00 0.00 0.00 0.00 0.01 0.02 0.03 0.03 0.03 0.03 0.04 0.04 0.04 0.05 0.05 0.05 0.06 0.07 0.08 0.09 0.10 0.11 0.14 0.18 0.21 0.21
0.00 0.00 0.00 0.00 0.00 0.00 0.00 0.00 0.00 0.00 0.00 0.00 0.00 0.00 0.00 0.00 0.00 0.00 0.00 0.00 0.00 0.00 0.00 0.00 0.00 0.01 0.01 0.00 0.00 0.01 0.01 0.00 0.00 0.00 0.00 0.00 0.00 0.00 0.00 0.00 0.00 0.00 0.00 0.00 0.00 0.01 0.01 0.02 0.02 0.02 0.02 0.02 0.02 0.03 0.03 0.03 0.03 0.03 0.03 0.05 0.08 0.10 0.12 0.14 0.15 0.16 0.16 0.18 0.17
0.00 0.00 0.00 0.00 0.00 0.00 0.00 0.00 0.00 0.00 0.00 0.00 0.00 0.00 0.00 0.00 0.00 0.00 0.00 0.00 0.00 0.00 0.00 0.00 0.00 0.00 0.00 0.00 0.00 0.00 0.00 0.00 0.00 0.00 0.00 0.00 0.00 0.00 0.00 0.00 0.00 0.00 0.00 0.00 0.01 0.01 0.02 0.02 0.02 0.02 0.02 0.02 0.02 0.02 0.02 0.02 0.02 0.03 0.03 0.03 0.05 0.05 0.07 0.10 0.11 0.12 0.11 0.09 0.12
0.00 0.00 0.00 0.00 0.00 0.00 0.00 0.00 0.00 0.00 0.00 0.00 0.00 0.00 0.00 0.00 0.00 0.00 0.00 0.00 0.00 0.00 0.00 0.00 0.00 0.00 0.00 0.00 0.00 0.00 0.00 0.00 0.00 0.00 0.00 0.00 0.00 0.00 0.00 0.00 0.00 0.00 0.01 0.01 0.01 0.01 0.01 0.01 0.01 0.01 0.01 0.01 0.01 0.02 0.02 0.02 0.02 0.03 0.04 0.04 0.05 0.05 0.05 0.05 0.06 0.07 0.07 0.06 0.06
0.00 0.00 0.00 0.00 0.00 0.00 0.00 0.00 0.00 0.00 0.00 0.00 0.00 0.00 0.00 0.00 0.00 0.00 0.00 0.00 0.00 0.00 0.00 0.00 0.00 0.00 0.00 0.00 0.00 0.00 0.00 0.00 0.00 0.00 0.00 0.00 0.00 0.00 0.00 0.00 0.00 0.00 0.01 0.01 0.01 0.01 0.01 0.01 0.01 0.01 0.01 0.01 0.01 0.01 0.01 0.02 0.02 0.03 0.03 0.03 0.04 0.05 0.05 0.04 0.05 0.06 0.06 0.06 0.08
0.00 0.00 0.00 0.00 0.00 0.00 0.00 0.00 0.00 0.00 0.00 0.00 0.00 0.00 0.00 0.00 0.00 0.00 0.00 0.00 0.00 0.00 0.00 0.00 0.00 0.00 0.00 0.00 0.00 0.00 0.00 0.00 0.00 0.00 0.00 0.00 0.00 0.00 0.00 0.00 0.00 0.01 0.01 0.01 0.01 0.01 0.01 0.01 0.01 0.01 0.01 0.01 0.01 0.01 0.01 0.02 0.02 0.02 0.02 0.03 0.03 0.04 0.04 0.04 0.04 0.05 0.06 0.08 0.10
0.00 0.00 0.00 0.00 0.00 0.00 0.00 0.00 0.00 0.00 0.00 0.00 0.00 0.00 0.00 0.00 0.00 0.00 0.00 0.00 0.00 0.00 0.00 0.00 0.00 0.00 0.00 0.00 0.00 0.00 0.00 0.00 0.00 0.00 0.00 0.00 0.00 0.00 0.00 0.00 0.01 0.01 0.01 0.01 0.01 0.01 0.01 0.01 0.02 0.02 0.01 0.01 0.01 0.01 0.01 0.01 0.01 0.01 0.02 0.02 0.02 0.02 0.03 0.03 0.03 0.05 0.08 0.09 0.10
0.00 0.00 0.00 0.00 0.00 0.00 0.00 0.00 0.00 0.00 0.00 0.00 0.00 0.00 0.00 0.00 0.00 0.00 0.00 0.00 0.00 0.00 0.00 0.00 0.00 0.00 0.00 0.00 0.00 0.00 0.00 0.00 0.00 0.00 0.00 0.00 0.00 0.00 0.01 0.01 0.01 0.01 0.01 0.01 0.01 0.01 0.01 0.01 0.02 0.02 0.02 0.01 0.01 0.01 0.01 0.01 0.01 0.01 0.01 0.01 0.01 0.02 0.02 0.03 0.03 0.06 0.09 0.11 0.11
0.00 0.00 0.00 0.00 0.00 0.00 0.00 0.00 0.00 0.00 0.00 0.00 0.00 0.00 0.00 0.00 0.00 0.00 0.00 0.00 0.00 0.00 0.00 0.00 0.00 0.00 0.00 0.00 0.00 0.00 0.00 0.00 0.00 0.00 0.00 0.00 0.00 0.00 0.01 0.01 0.00 0.01 0.01 0.01 0.01 0.01 0.01 0.01 0.01 0.01 0.01 0.01 0.01 0.01 0.01 0.01 0.01 0.01 0.01 0.01 0.01 0.01 0.02 0.02 0.03 0.05 0.08 0.10 0.11
0.00 0.00 0.00 0.00 0.00 0.00 0.00 0.00 0.00 0.00 0.00 0.00 0.00 0.00 0.00 0.00 0.00 0.00 0.00 0.00 0.00 0.00 0.00 0.00 0.00 0.00 0.00 0.00 0.00 0.00 0.00 0.00 0.00 0.00 0.00 0.00 0.00 0.00 0.00 0.00 0.00 0.01 0.01 0.01 0.01 0.01 0.01 0.01 0.01 0.01 0.01 0.01 0.01 0.01 0.01 0.01 0.01 0.01 0.01 0.01 0.01 0.01 0.01 0.02 0.03 0.04 0.06 0.07 0.09
0.00 0.00 0.00 0.00 0.00 0.00 0.00 0.00 0.00 0.00 0.00 0.00 0.00 0.00 0.00 0.00 0.00 0.00 0.00 0.00 0.00 0.00 0.00 0.00 0.00 0.00 0.00 0.00 0.00 0.00 0.00 0.00 0.00 0.00 0.00 0.00 0.00 0.00 0.00 0.00 0.00 0.01 0.01 0.01 0.01 0.01 0.01 0.01 0.01 0.01 0.01 0.01 0.01 0.01 0.01 0.00 0.00 0.00 0.00 0.00 0.00 0.01 0.01 0.01 0.02 0.03 0.04 0.06 0.07
0.00 0.00 0.00 0.00 0.00 0.00 0.00 0.00 0.00 0.00 0.00 0.00 0.00 0.00 0.00 0.00 0.00 0.00 0.00 0.00 0.00 0.00 0.00 0.00 0.00 0.00 0.00 0.00 0.00 0.00 0.00 0.00 0.00 0.00 0.00 0.00 0.00 0.00 0.00 0.00 0.00 0.01 0.01 0.01 0.01 0.01 0.01 0.01 0.01 0.01 0.01 0.01 0.01 0.01 0.01 0.01 0.00 0.00 0.00 0.00 0.00 0.00 0.00 0.01 0.03 0.05 0.06 0.06 0.08
0.00 0.00 0.00 0.00 0.00 0.00 0.00 0.00 0.00 0.00 0.00 0.00 0.00 0.00 0.00 0.00 0.00 0.00 0.00 0.00 0.00 0.00 0.00 0.00 0.00 0.00 0.00 0.00 0.00 0.00 0.00 0.00 0.00 0.00 0.00 0.00 0.00 0.00 0.00 0.00 0.00 0.01 0.01 0.01 0.01 0.01 0.01 0.01 0.01 0.01 0.01 0.01 0.01 0.01 0.01 0.00 0.00 0.00 0.00 0.00 0.00 0.00 0.01 0.04 0.10 0.13 0.13 0.14 0.14
0.00 0.00 0.00 0.00 0.00 0.00 0.00 0.00 0.00 0.00 0.00 0.00 0.00 0.00 0.00 0.00 0.00 0.00 0.00 0.00 0.00 0.00 0.00 0.00 0.00 0.00 0.00 0.00 0.00 0.00 0.00 0.00 0.00 0.00 0.00 0.00 0.00 0.00 0.00 0.00 0.00 0.00 0.00 0.00 0.00 0.00 0.01 0.01 0.01 0.01 0.01 0.01 0.01 0.01 0.01 0.00 0.00 0.01 0.01 0.01 0.02 0.02 0.04 0.09 0.12 0.15 0.16 0.17 0.18
0.00 0.00 0.00 0.00 0.00 0.00 0.00 0.00 0.00 0.00 0.00 0.00 0.00 0.00 0.00 0.00 0.00 0.00 0.00 0.00 0.00 0.00 0.00 0.00 0.00 0.00 0.00 0.00 0.00 0.00 0.00 0.00 0.00 0.00 0.00 0.00 0.00 0.00 0.00 0.00 0.00 0.00 0.00 0.00 0.00 0.00 0.00 0.00 0.01 0.01 0.01 0.01 0.01 0.01 0.01 0.01 0.01 0.03 0.04 0.05 0.06 0.06 0.08 0.11 0.12 0.13 0.13 0.14 0.13
0.00 0.00 0.00 0.00 0.00 0.00 0.00 0.00 0.00 0.00 0.00 0.00 0.00 0.00 0.00 0.00 0.00 0.00 0.00 0.00 0.00 0.00 0.00 0.00 0.00 0.00 0.00 0.00 0.00 0.00 0.00 0.00 0.00 0.00 0.00 0.00 0.00 0.00 0.00 0.00 0.00 0.00 0.00 0.00 0.00 0.00 0.00 0.01 0.01 0.01 0.01 0.01 0.01 0.01 0.01 0.01 0.02 0.05 0.08 0.09 0.10 0.11 0.11 0.11 0.10 0.08 0.07 0.07 0.07
0.00 0.00 0.00 0.00 0.00 0.00 0.00 0.00 0.00 0.00 0.00 0.00 0.00 0.00 0.00 0.00 0.00 0.00 0.00 0.00 0.00 0.00 0.00 0.00 0.00 0.00 0.00 0.00 0.00 0.00 0.00 0.00 0.00 0.01 0.01 0.01 0.01 0.01 0.00 0.00 0.00 0.00 0.00 0.01 0.01 0.01 0.00 0.00 0.00 0.01 0.01 0.01 0.01 0.01 0.01 0.02 0.04 0.06 0.08 0.10 0.12 0.11 0.09 0.07 0.06 0.05 0.04 0.03 0.04
0.00 0.00 0.00 0.00 0.00 0.00 0.00 0.00 0.00 0.00 0.00 0.00 0.00 0.00 0.00 0.00 0.00 0.00 0.00 0.00 0.00 0.00 0.00 0.00 0.00 0.00 0.00 0.00 0.00 0.00 0.00 0.01 0.01 0.01 0.01 0.01 0.01 0.00 0.00 0.00 0.00 0.00 0.00 0.01 0.00 0.00 0.00 0.01 0.01 0.01 0.01 0.01 0.01 0.01 0.02 0.04 0.05 0.06 0.07 0.08 0.10 0.07 0.05 0.05 0.06 0.06 0.05 0.05 0.05
0.00 0.00 0.00 0.00 0.00 0.00 0.00 0.00 0.00 0.00 0.00 0.00 0.00 0.00 0.00 0.00 0.00 0.00 0.00 0.00 0.00 0.00 0.00 0.00 0.00 0.00 0.00 0.00 0.00 0.00 0.00 0.01 0.01 0.01 0.01 0.00 0.00 0.00 0.00 0.00 0.00 0.00 0.01 0.00 0.00 0.00 0.00 0.00 0.01 0.01 0.01 0.03 0.04 0.06 0.07 0.09 0.11 0.13 0.14 0.13 0.12 0.07 0.02 0.03 0.03 0.03 0.03 0.03 0.03
0.00 0.00 0.00 0.00 0.00 0.00 0.00 0.00 0.00 0.00 0.00 0.00 0.00 0.00 0.00 0.00 0.00 0.00 0.00 0.00 0.00 0.00 0.00 0.00 0.00 0.00 0.00 0.00 0.00 0.00 0.00 0.00 0.00 0.00 0.00 0.00 0.00 0.00 0.00 0.00 0.00 0.01 0.01 0.01 0.01 0.00 0.00 0.00 0.00 0.00 0.01 0.02 0.05 0.07 0.08 0.08 0.06 0.05 0.04 0.03 0.03 0.02 0.01 0.02 0.02 0.02 0.02 0.02 0.02
0.00 0.00 0.00 0.00 0.00 0.00 0.00 0.00 0.00 0.00 0.00 0.00 0.00 0.00 0.00 0.00 0.00 0.00 0.00 0.00 0.00 0.00 0.00 0.00 0.00 0.00 0.00 0.00 0.00 0.00 0.00 0.00 0.00 0.00 0.00 0.00 0.00 0.00 0.00 0.01 0.01 0.01 0.01 0.01 0.01 0.01 0.00 0.00 0.00 0.01 0.01 0.01 0.01 0.01 0.01 0.01 0.01 0.01 0.01 0.01 0.01 0.01 0.01 0.02 0.02 0.02 0.02 0.02 0.02
0.00 0.00 0.00 0.00 0.00 0.00 0.00 0.00 0.00 0.00 0.00 0.00 0.00 0.00 0.00 0.00 0.00 0.00 0.00 0.00 0.00 0.00 0.00 0.00 0.00 0.00 0.00 0.00 0.00 0.00 0.00 0.00 0.00 0.00 0.00 0.00 0.01 0.01 0.01 0.01 0.01 0.01 0.01 0.01 0.01 0.01 0.01 0.01 0.03 0.04 0.05 0.04 0.02 0.01 0.00 0.01 0.01 0.01 0.01 0.01 0.01 0.01 0.01 0.02 0.02 0.02 0.02 0.02 0.02
0.00 0.00 0.00 0.00 0.00 0.00 0.00 0.00 0.00 0.00 0.00 0.00 0.00 0.00 0.00 0.00 0.00 0.00 0.00 0.00 0.00 0.00 0.00 0.00 0.00 0.00 0.00 0.00 0.00 0.00 0.00 0.00 0.00 0.01 0.01 0.01 0.01 0.01 0.01 0.01 0.01 0.01 0.01 0.01 0.01 0.00 0.00 0.00 0.00 0.00 0.00 0.00 0.00 0.00 0.00 0.00 0.00 0.00 0.00 0.00 0.00 0.01 0.01 0.01 0.01 0.01 0.01 0.02 0.02
0.00 0.00 0.00 0.00 0.00 0.00 0.00 0.00 0.00 0.00 0.00 0.00 0.00 0.00 0.00 0.00 0.00 0.00 0.00 0.00 0.00 0.00 0.00 0.00 0.00 0.00 0.00 0.00 0.00 0.00 0.01 0.01 0.01 0.01 0.01 0.01 0.01 0.01 0.01 0.01 0.01 0.01 0.01 0.01 0.00 0.00 0.00 0.00 0.00 0.00 0.00 0.00 0.00 0.00 0.00 0.00 0.00 0.00 0.00 0.00 0.00 0.00 0.01 0.01 0.01 0.01 0.01 0.01 0.01
0.00 0.00 0.00 0.00 0.00 0.00 0.00 0.00 0.00 0.00 0.00 0.00 0.00 0.00 0.00 0.00 0.00 0.00 0.00 0.00 0.00 0.00 0.00 0.00 0.01 0.01 0.01 0.01 0.01 0.01 0.01 0.01 0.01 0.01 0.01 0.01 0.01 0.01 0.01 0.01 0.01 0.01 0.01 0.01 0.01 0.00 0.00 0.00 0.00 0.00 0.00 0.00 0.00 0.00 0.00 0.00 0.00 0.00 0.00 0.00 0.00 0.00 0.00 0.01 0.01 0.01 0.01 0.01 0.01
0.01 0.01 0.00 0.00 0.00 0.00 0.00 0.00 0.00 0.00 0.00 0.00 0.00 0.00 0.00 0.00 0.00 0.00 0.00 0.00 0.00 0.00 0.01 0.01 0.01 0.01 0.01 0.01 0.01 0.01 0.01 0.01 0.01 0.01 0.01 0.01 0.01 0.00 0.00 0.01 0.01 0.01 0.01 0.01 0.00 0.00 0.00 0.00 0.00 0.00 0.00 0.00 0.00 0.00 0.00 0.00 0.00 0.00 0.00 0.00 0.00 0.00 0.00 0.00 0.01 0.01 0.01 0.01 0.02
0.00 0.00 0.01 0.01 0.01 0.01 0.01 0.01 0.01 0.00 0.01 0.01 0.01 0.01 0.01 0.01 0.01 0.01 0.01 0.01 0.01 0.01 0.01 0.01 0.01 0.01 0.01 0.01 0.01 0.01 0.01 0.01 0.00 0.00 0.00 0.00 0.00 0.00 0.00 0.01 0.01 0.01 0.01 0.00 0.00 0.00 0.00 0.00 0.00 0.00 0.00 0.00 0.00 0.00 0.00 0.00 0.00 0.00 0.00 0.00 0.00 0.00 0.01 0.01 0.01 0.01 0.01 0.02 0.02
0.01 0.01 0.01 0.01 0.01 0.01 0.01 0.01 0.00 0.00 0.00 0.01 0.01 0.01 0.01 0.01 0.01 0.01 0.01 0.01 0.01 0.01 0.01 0.01 0.01 0.01 0.01 0.00 0.00 0.00 0.00 0.00 0.00 0.00 0.00 0.00 0.00 0.00 0.00 0.01 0.01 0.01 0.00 0.00 0.00 0.00 0.00 0.00 0.00 0.00 0.00 0.00 0.00 0.00 0.00 0.00 0.00 0.00 0.00 0.00 0.00 0.00 0.01 0.01 0.01 0.01 0.02 0.02 0.01
0.01 0.01 0.01 0.01 0.01 0.01 0.01 0.01 0.00 0.01 0.01 0.01 0.01 0.01 0.01 0.01 0.01 0.01 0.01 0.01 0.01 0.01 0.01 0.01 0.00 0.00 0.00 0.00 0.00 0.00 0.00 0.00 0.00 0.00 0.00 0.00 0.00 0.00 0.00 0.00 0.00 0.00 0.00 0.00 0.00 0.00 0.00 0.00 0.00 0.00 0.00 0.00 0.00 0.00 0.00 0.00 0.00 0.00 0.00 0.00 0.00 0.00 0.00 0.00 0.00 0.01 0.01 0.01 0.00
0.01 0.01 0.01 0.01 0.01 0.01 0.01 0.00 0.01 0.01 0.01 0.01 0.01 0.01 0.01 0.01 0.01 0.01 0.00 0.00 0.00 0.01 0.01 0.01 0.00 0.00 0.00 0.00 0.00 0.00 0.00 0.00 0.00 0.00 0.00 0.00 0.00 0.00 0.00 0.00 0.00 0.00 0.00 0.00 0.00 0.00 0.00 0.00 0.00 0.00 0.00 0.00 0.00 0.00 0.00 0.00 0.00 0.00 0.00 0.00 0.00 0.00 0.00 0.00 0.00 0.00 0.00 0.00 0.00
0.01 0.01 0.00 0.01 0.01 0.01 0.01 0.00 0.00 0.00 0.00 0.00 0.00 0.00 0.00 0.01 0.01 0.00 0.00 0.00 0.00 0.00 0.00 0.00 0.00 0.00 0.00 0.00 0.00 0.00 0.00 0.00 0.00 0.00 0.00 0.00 0.00 0.00 0.00 0.00 0.00 0.00 0.00 0.00 0.00 0.00 0.00 0.00 0.00 0.00 0.00 0.00 0.00 0.00 0.00 0.00 0.00 0.00 0.00 0.00 0.00 0.00 0.00 0.00 0.00 0.00 0.00 0.00 0.00
0.00 0.00 0.00 0.00 0.00 0.00 0.00 0.00 0.00 0.00 0.00 0.00 0.00 0.00 0.00 0.00 0.00 0.00 0.00 0.00 0.00 0.00 0.00 0.00 0.00 0.00 0.00 0.00 0.00 0.00 0.00 0.00 0.00 0.00 0.00 0.00 0.00 0.00 0.00 0.00 0.00 0.00 0.00 0.00 0.00 0.00 0.00 0.00 0.00 0.00 0.00 0.00 0.00 0.00 0.00 0.00 0.00 0.00 0.00 0.00 0.00 0.00 0.00 0.00 0.00 0.00 0.00 0.00 0.00
0.00 0.00 0.00 0.00 0.00 0.00 0.00 0.00 0.00 0.00 0.00 0.00 0.00 0.00 0.00 0.00 0.00 0.00 0.00 0.00 0.00 0.00 0.00 0.00 0.00 0.00 0.00 0.00 0.00 0.00 0.00 0.00 0.00 0.00 0.00 0.00 0.00 0.00 0.00 0.00 0.00 0.00 0.00 0.00 0.00 0.00 0.00 0.00 0.00 0.00 0.00 0.00 0.00 0.00 0.00 0.00 0.00 0.00 0.00 0.00 0.00 0.00 0.00 0.00 0.00 0.00 0.00 0.00 0.00
0.00 0.00 0.00 0.00 0.00 0.00 0.00 0.00 0.00 0.00 0.00 0.00 0.00 0.00 0.00 0.00 0.00 0.00 0.00 0.00 0.00 0.00 0.00 0.00 0.00 0.00 0.00 0.00 0.00 0.00 0.00 0.00 0.00 0.00 0.00 0.00 0.00 0.00 0.00 0.00 0.00 0.00 0.00 0.00 0.00 0.00 0.00 0.00 0.00 0.00 0.00 0.00 0.00 0.00 0.00 0.00 0.00 0.00 0.00 0.00 0.00 0.00 0.00 0.00 0.00 0.00 0.00 0.00 0.00
0.00 0.00 0.00 0.00 0.00 0.00 0.00 0.00 0.00 0.00 0.00 0.00 0.00 0.00 0.00 0.00 0.00 0.00 0.00 0.00 0.00 0.00 0.00 0.00 0.00 0.00 0.00 0.00 0.00 0.00 0.00 0.00 0.00 0.00 0.00 0.00 0.00 0.00 0.00 0.00 0.00 0.00 0.00 0.00 0.00 0.00 0.00 0.00 0.00 0.00 0.00 0.00 0.00 0.00 0.00 0.00 0.00 0.00 0.00 0.00 0.00 0.00 0.00 0.00 0.00 0.00 0.00 0.00 0.00
MSLP
1012.64 1012.60 1012.60 1012.60 1012.64 1012.64 1012.64 1012.60 1012.56 1012.52 1012.52 1012.56 1012.56 1012.56 1012.52 1012.56 1012.56 1012.56 1012.52 1012.48 1012.52 1012.56 1012.56 1012.56 1012.56 1012.56 1012.56 1012.56 1012.60 1012.64 1012.68 1012.72 1012.92 1013.16 1013.44 1013.56 1013.56 1013.56 1013.64 1013.76 1013.80 1013.88 1014.00 1014.12 1014.28 1014.40 1014.52 1014.64 1014.84 1015.20 1015.52 1015.72 1015.72 1015.72 1015.72 1015.72 1015.72 1015.72 1015.72 1015.84 1015.96 1016.12 1016.28 1016.48 1016.56 1016.60 1016.76 1016.96 1017.04
1012.72 1012.72 1012.68 1012.68 1012.68 1012.68 1012.68 1012.68 1012.64 1012.60 1012.56 1012.56 1012.56 1012.56 1012.56 1012.56 1012.60 1012.60 1012.60 1012.56 1012.52 1012.48 1012.48 1012.48 1012.44 1012.48 1012.52 1012.52 1012.48 1012.56 1012.72 1012.92 1013.12 1013.36 1013.52 1013.60 1013.64 1013.72 1013.80 1013.84 1013.92 1014.04 1014.16 1014.28 1014.40 1014.52 1014.60 1014.72 1014.88 1015.16 1015.44 1015.56 1015.64 1015.72 1015.80 1015.84 1015.84 1015.88 1016.00 1016.12 1016.24 1016.36 1016.52 1016.60 1016.60 1016.56 1016.60 1016.76 1016.84
1012.84 1012.80 1012.72 1012.76 1012.76 1012.80 1012.80 1012.80 1012.76 1012.72 1012.72 1012.68 1012.60 1012.56 1012.56 1012.60 1012.64 1012.64 1012.64 1012.56 1012.52 1012.52 1012.52 1012.52 1012.48 1012.48 1012.48 1012.52 1012.52 1012.64 1012.84 1013.04 1013.16 1013.40 1013.64 1013.76 1013.76 1013.80 1013.84 1013.92 1014.00 1014.12 1014.24 1014.40 1014.52 1014.64 1014.76 1014.88 1015.00 1015.20 1015.40 1015.56 1015.60 1015.72 1015.80 1015.88 1015.96 1016.00 1016.12 1016.28 1016.40 1016.52 1016.68 1016.80 1016.84 1016.88 1016.88 1016.92 1016.96
1012.92 1012.92 1012.92 1012.92 1012.92 1012.92 1012.92 1012.88 1012.84 1012.84 1012.76 1012.72 1012.64 1012.64 1012.64 1012.64 1012.64 1012.64 1012.60 1012.56 1012.56 1012.56 1012.56 1012.56 1012.52 1012.48 1012.48 1012.56 1012.68 1012.84 1013.00 1013.04 1013.20 1013.44 1013.72 1013.84 1013.80 1013.84 1013.92 1014.00 1014.12 1014.20 1014.28 1014.40 1014.60 1014.76 1014.88 1015.04 1015.20 1015.36 1015.52 1015.68 1015.72 1015.84 1015.92 1016.04 1016.12 1016.28 1016.40 1016.48 1016.56 1016.72 1016.88 1017.04 1017.16 1017.24 1017.28 1017.28 1017.32
1013.08 1013.04 1013.04 1013.04 1013.00 1013.00 1013.00 1012.96 1012.96 1012.92 1012.84 1012.80 1012.76 1012.76 1012.76 1012.72 1012.72 1012.72 1012.72 1012.72 1012.72 1012.68 1012.64 1012.64 1012.60 1012.56 1012.56 1012.68 1012.88 1013.08 1013.16 1013.20 1013.28 1013.48 1013.64 1013.72 1013.84 1013.88 1013.96 1014.08 1014.24 1014.36 1014.44 1014.56 1014.72 1014.84 1015.04 1015.24 1015.44 1015.56 1015.72 1015.80 1015.84 1015.96 1016.04 1016.16 1016.36 1016.52 1016.64 1016.80 1016.88 1017.00 1017.12 1017.28 1017.36 1017.44 1017.48 1017.56 1017.60
1013.36 1013.28 1013.20 1013.16 1013.12 1013.12 1013.12 1013.04 1013.04 1013.04 1013.00 1012.96 1013.00 1013.00 1013.00 1012.92 1012.84 1012.84 1012.88 1012.92 1012.88 1012.84 1012.80 1012.80 1012.76 1012.72 1012.72 1012.84 1013.04 1013.28 1013.44 1013.44 1013.48 1013.56 1013.68 1013.80 1013.88 1014.00 1014.16 1014.28 1014.44 1014.60 1014.72 1014.84 1014.96 1015.08 1015.24 1015.44 1015.60 1015.72 1015.84 1015.88 1015.96 1016.08 1016.16 1016.28 1016.44 1016.64 1016.80 1016.96 1017.04 1017.12 1017.24 1017.32 1017.40 1017.44 1017.56 1017.68 1017.80
1013.52 1013.44 1013.44 1013.36 1013.32 1013.28 1013.28 1013.24 1013.20 1013.16 1013.12 1013.12 1013.16 1013.20 1013.20 1013.12 1013.12 1013.08 1013.08 1013.04 1013.04 1013.00 1012.96 1012.96 1012.96 1012.96 1013.00 1013.00 1013.12 1013.36 1013.56 1013.68 1013.72 1013.76 1013.84 1014.00 1014.12 1014.28 1014.40 1014.56 1014.72 1014.84 1014.88 1015.00 1015.12 1015.28 1015.44 1015.56 1015.72 1015.84 1015.96 1016.04 1016.12 1016.20 1016.28 1016.40 1016.52 1016.72 1016.88 1017.04 1017.12 1017.24 1017.28 1017.32 1017.40 1017.44 1017.56 1017.68 1017.84
1013.64 1013.60 1013.56 1013.56 1013.52 1013.48 1013.44 1013.40 1013.40 1013.32 1013.28 1013.32 1013.36 1013.40 1013.40 1013.40 1013.40 1013.40 1013.32 1013.28 1013.24 1013.20 1013.16 1013.20 1013.24 1013.28 1013.32 1013.32 1013.44 1013.68 1013.88 1014.00 1014.12 1014.16 1014.28 1014.36 1014.48 1014.60 1014.72 1014.84 1014.96 1015.00 1015.08 1015.16 1015.24 1015.36 1015.48 1015.60 1015.84 1016.00 1016.12 1016.20 1016.28 1016.40 1016.44 1016.48 1016.60 1016.72 1016.88 1017.08 1017.20 1017.28 1017.32 1017.36 1017.44 1017.52 1017.56 1017.68 1017.80
1013.84 1013.76 1013.72 1013.72 1013.64 1013.60 1013.56 1013.52 1013.52 1013.48 1013.52 1013.56 1013.64 1013.68 1013.72 1013.76 1013.76 1013.72 1013.72 1013.68 1013.56 1013.48 1013.44 1013.48 1013.56 1013.64 1013.72 1013.80 1013.92 1014.12 1014.28 1014.40 1014.56 1014.68 1014.76 1014.84 1014.88 1014.96 1015.04 1015.12 1015.16 1015.28 1015.32 1015.36 1015.40 1015.44 1015.56 1015.72 1015.92 1016.08 1016.24 1016.28 1016.40 1016.48 1016.56 1016.56 1016.68 1016.80 1016.92 1017.04 1017.20 1017.28 1017.40 1017.48 1017.56 1017.56 1017.60 1017.68 1017.76
1014.04 1014.00 1013.92 1013.88 1013.84 1013.72 1013.68 1013.64 1013.64 1013.72 1013.80 1013.88 1013.96 1014.00 1014.12 1014.12 1014.16 1014.16 1014.12 1014.00 1013.88 1013.84 1013.84 1013.84 1013.92 1014.00 1014.12 1014.24 1014.40 1014.52 1014.64 1014.76 1014.88 1015.00 1015.12 1015.12 1015.20 1015.24 1015.28 1015.32 1015.44 1015.52 1015.56 1015.60 1015.64 1015.68 1015.76 1015.88 1016.04 1016.20 1016.32 1016.40 1016.48 1016.52 1016.56 1016.60 1016.68 1016.80 1016.92 1017.00 1017.12 1017.28 1017.44 1017.56 1017.60 1017.68 1017.72 1017.76 1017.84
1014.20 1014.16 1014.12 1014.04 1014.00 1013.88 1013.84 1013.88 1013.96 1014.00 1014.12 1014.28 1014.28 1014.40 1014.48 1014.56 1014.60 1014.56 1014.44 1014.32 1014.28 1014.28 1014.28 1014.28 1014.36 1014.44 1014.56 1014.64 1014.72 1014.84 1014.96 1015.00 1015.12 1015.20 1015.24 1015.28 1015.36 1015.44 1015.52 1015.60 1015.72 1015.76 1015.84 1015.88 1015.92 1015.96 1016.00 1016.12 1016.28 1016.40 1016.52 1016.56 1016.56 1016.60 1016.64 1016.64 1016.72 1016.80 1016.88 1017.00 1017.12 1017.28 1017.44 1017.60 1017.72 1017.84 1017.88 1017.96 1018.00
1014.40 1014.36 1014.32 1014.28 1014.20 1014.12 1014.12 1014.24 1014.32 1014.44 1014.56 1014.64 1014.72 1014.80 1014.84 1014.88 1014.92 1014.84 1014.76 1014.72 1014.64 1014.64 1014.68 1014.68 1014.72 1014.80 1014.88 1014.96 1015.04 1015.12 1015.16 1015.24 1015.28 1015.32 1015.40 1015.48 1015.56 1015.68 1015.76 1015.84 1015.92 1016.00 1016.08 1016.12 1016.20 1016.24 1016.28 1016.40 1016.52 1016.60 1016.68 1016.72 1016.76 1016.76 1016.80 1016.80 1016.84 1016.84 1016.88 1016.92 1017.00 1017.16 1017.44 1017.68 1017.88 1018.00 1018.04 1018.12 1018.12
1014.64 1014.64 1014.60 1014.56 1014.52 1014.48 1014.52 1014.64 1014.76 1014.88 1015.00 1015.04 1015.08 1015.12 1015.12 1015.16 1015.16 1015.12 1015.04 1015.00 1015.00 1015.00 1015.00 1015.04 1015.12 1015.16 1015.24 1015.28 1015.32 1015.40 1015.44 1015.48 1015.52 1015.56 1015.64 1015.72 1015.84 1015.92 1016.00 1016.12 1016.16 1016.28 1016.36 1016.40 1016.44 1016.52 1016.56 1016.64 1016.72 1016.76 1016.84 1016.88 1016.96 1017.00 1017.04 1017.08 1017.08 1017.08 1017.00 1016.92 1016.92 1017.04 1017.32 1017.64 1017.92 1018.12 1018.20 1018.28 1018.28
1014.92 1014.96 1014.96 1014.92 1014.88 1014.88 1014.96 1015.04 1015.16 1015.28 1015.32 1015.36 1015.40 1015.40 1015.40 1015.40 1015.40 1015.32 1015.28 1015.28 1015.28 1015.32 1015.32 1015.36 1015.44 1015.52 1015.56 1015.60 1015.64 1015.68 1015.72 1015.76 1015.80 1015.84 1015.92 1016.04 1016.12 1016.24 1016.28 1016.40 1016.48 1016.56 1016.60 1016.72 1016.72 1016.72 1016.80 1016.88 1016.96 1017.00 1017.08 1017.12 1017.24 1017.32 1017.40 1017.44 1017.44 1017.40 1017.28 1017.12 1017.00 1017.00 1017.20 1017.52 1017.84 1018.12 1018.28 1018.36 1018.40
1015.28 1015.28 1015.28 1015.28 1015.28 1015.28 1015.36 1015.44 1015.52 1015.56 1015.64 1015.68 1015.68 1015.68 1015.64 1015.60 1015.60 1015.56 1015.56 1015.60 1015.60 1015.60 1015.64 1015.72 1015.76 1015.84 1015.88 1015.92 1015.96 1016.00 1016.00 1016.08 1016.12 1016.16 1016.28 1016.40 1016.48 1016.56 1016.64 1016.72 1016.76 1016.80 1016.84 1016.92 1016.96 1017.00 1017.04 1017.12 1017.24 1017.32 1017.44 1017.48 1017.56 1017.64 1017.72 1017.76 1017.80 1017.76 1017.64 1017.48 1017.28 1017.12 1017.16 1017.44 1017.80 1018.12 1018.32 1018.44 1018.56
1015.56 1015.60 1015.64 1015.64 1015.64 1015.68 1015.72 1015.76 1015.84 1015.88 1015.92 1015.96 1015.96 1015.92 1015.92 1015.92 1015.88 1015.88 1015.88 1015.88 1015.88 1015.92 1015.96 1016.00 1016.04 1016.12 1016.16 1016.16 1016.20 1016.28 1016.32 1016.36 1016.40 1016.48 1016.56 1016.72 1016.80 1016.84 1016.92 1017.00 1017.00 1017.08 1017.12 1017.12 1017.20 1017.24 1017.28 1017.40 1017.48 1017.56 1017.72 1017.80 1017.88 1018.00 1018.04 1018.12 1018.12 1018.12 1018.04 1017.84 1017.56 1017.40 1017.36 1017.56 1017.84 1018.16 1018.40 1018.52 1018.60
1015.88 1015.92 1015.96 1015.96 1016.00 1016.00 1016.00 1016.12 1016.12 1016.16 1016.20 1016.24 1016.20 1016.20 1016.24 1016.28 1016.24 1016.24 1016.20 1016.20 1016.16 1016.16 1016.20 1016.28 1016.28 1016.32 1016.40 1016.40 1016.44 1016.48 1016.56 1016.64 1016.72 1016.76 1016.88 1017.00 1017.04 1017.12 1017.12 1017.20 1017.28 1017.32 1017.36 1017.36 1017.44 1017.44 1017.52 1017.56 1017.64 1017.80 1017.92 1018.04 1018.16 1018.28 1018.36 1018.44 1018.48 1018.44 1018.36 1018.12 1017.84 1017.72 1017.72 1017.84 1018.12 1018.32 1018.52 1018.64 1018.72
1016.20 1016.24 1016.24 1016.28 1016.28 1016.28 1016.32 1016.36 1016.40 1016.44 1016.44 1016.48 1016.52 1016.56 1016.56 1016.56 1016.56 1016.52 1016.48 1016.48 1016.48 1016.48 1016.48 1016.52 1016.56 1016.56 1016.60 1016.64 1016.72 1016.76 1016.84 1016.88 1016.96 1017.04 1017.12 1017.24 1017.28 1017.36 1017.40 1017.44 1017.52 1017.56 1017.56 1017.60 1017.64 1017.72 1017.72 1017.76 1017.80 1017.92 1018.08 1018.24 1018.40 1018.56 1018.64 1018.72 1018.72 1018.72 1018.64 1018.40 1018.20 1018.12 1018.12 1018.24 1018.40 1018.56 1018.68 1018.80 1018.92
1016.44 1016.48 1016.52 1016.56 1016.56 1016.56 1016.56 1016.60 1016.64 1016.68 1016.72 1016.72 1016.80 1016.84 1016.84 1016.84 1016.80 1016.80 1016.80 1016.76 1016.76 1016.76 1016.76 1016.76 1016.84 1016.84 1016.84 1016.92 1017.00 1017.04 1017.12 1017.16 1017.24 1017.28 1017.40 1017.44 1017.52 1017.56 1017.64 1017.68 1017.72 1017.72 1017.80 1017.84 1017.88 1017.92 1017.96 1018.00 1018.00 1018.12 1018.24 1018.40 1018.56 1018.72 1018.84 1018.96 1019.00 1018.96 1018.84 1018.72 1018.56 1018.48 1018.48 1018.56 1018.68 1018.80 1018.88 1019.00 1019.08
1016.72 1016.72 1016.72 1016.76 1016.76 1016.80 1016.80 1016.84 1016.84 1016.92 1017.00 1017.00 1017.08 1017.08 1017.08 1017.08 1017.04 1017.00 1017.00 1017.04 1017.04 1017.00 1017.00 1017.00 1017.04 1017.08 1017.12 1017.16 1017.24 1017.28 1017.40 1017.44 1017.48 1017.56 1017.64 1017.72 1017.76 1017.80 1017.84 1017.88 1017.92 1017.96 1018.00 1018.04 1018.08 1018.12 1018.12 1018.16 1018.24 1018.32 1018.40 1018.52 1018.72 1018.88 1019.00 1019.12 1019.12 1019.12 1019.04 1018.96 1018.84 1018.76 1018.80 1018.88 1018.96 1019.04 1019.12 1019.20 1019.28
1016.92 1016.92 1016.96 1016.96 1017.00 1017.00 1017.04 1017.08 1017.12 1017.20 1017.24 1017.28 1017.32 1017.32 1017.28 1017.28 1017.28 1017.28 1017.28 1017.32 1017.32 1017.28 1017.28 1017.28 1017.28 1017.36 1017.36 1017.40 1017.44 1017.56 1017.64 1017.72 1017.76 1017.84 1017.88 1017.96 1018.00 1018.04 1018.12 1018.12 1018.16 1018.20 1018.24 1018.28 1018.28 1018.28 1018.28 1018.32 1018.40 1018.52 1018.60 1018.68 1018.84 1019.00 1019.08 1019.16 1019.20 1019.20 1019.16 1019.12 1019.00 1019.00 1019.08 1019.12 1019.24 1019.28 1019.36 1019.44 1019.52
1017.12 1017.16 1017.20 1017.24 1017.28 1017.28 1017.32 1017.36 1017.40 1017.44 1017.44 1017.48 1017.44 1017.44 1017.48 1017.48 1017.48 1017.52 1017.56 1017.56 1017.52 1017.48 1017.52 1017.56 1017.64 1017.64 1017.60 1017.64 1017.68 1017.72 1017.84 1017.96 1018.00 1018.08 1018.12 1018.20 1018.24 1018.28 1018.36 1018.40 1018.44 1018.48 1018.48 1018.52 1018.52 1018.48 1018.48 1018.56 1018.64 1018.72 1018.80 1018.84 1019.00 1019.12 1019.20 1019.28 1019.36 1019.36 1019.32 1019.28 1019.28 1019.28 1019.32 1019.44 1019.48 1019.56 1019.60 1019.64 1019.68
1017.44 1017.44 1017.44 1017.52 1017.56 1017.56 1017.56 1017.56 1017.56 1017.56 1017.56 1017.56 1017.56 1017.60 1017.68 1017.68 1017.72 1017.76 1017.76 1017.72 1017.72 1017.72 1017.80 1017.84 1017.84 1017.88 1017.84 1017.84 1017.92 1018.00 1018.04 1018.12 1018.24 1018.32 1018.40 1018.40 1018.48 1018.56 1018.60 1018.64 1018.68 1018.72 1018.72 1018.72 1018.76 1018.76 1018.76 1018.80 1018.84 1018.92 1019.00 1019.12 1019.24 1019.36 1019.44 1019.52 1019.56 1019.60 1019.60 1019.60 1019.56 1019.56 1019.56 1019.64 1019.68 1019.72 1019.76 1019.76 1019.76
1017.64 1017.68 1017.72 1017.72 1017.72 1017.72 1017.72 1017.72 1017.72 1017.72 1017.68 1017.72 1017.72 1017.80 1017.84 1017.88 1017.92 1017.96 1017.96 1017.96 1018.00 1018.00 1018.00 1018.04 1018.04 1018.04 1018.08 1018.12 1018.12 1018.16 1018.28 1018.40 1018.44 1018.52 1018.56 1018.64 1018.72 1018.72 1018.76 1018.80 1018.84 1018.84 1018.92 1018.96 1018.96 1019.00 1019.00 1019.00 1019.08 1019.12 1019.24 1019.36 1019.48 1019.60 1019.72 1019.72 1019.76 1019.80 1019.84 1019.84 1019.84 1019.84 1019.84 1019.84 1019.84 1019.92 1019.92 1019.88 1019.92
1017.84 1017.88 1017.88 1017.88 1017.88 1017.84 1017.84 1017.84 1017.84 1017.84 1017.84 1017.88 1017.92 1018.00 1018.00 1018.04 1018.12 1018.12 1018.16 1018.24 1018.28 1018.24 1018.24 1018.20 1018.20 1018.24 1018.28 1018.28 1018.32 1018.40 1018.48 1018.56 1018.60 1018.72 1018.76 1018.80 1018.84 1018.84 1018.88 1018.92 1018.96 1019.00 1019.00 1019.00 1019.00 1019.04 1019.12 1019.16 1019.28 1019.36 1019.48 1019.60 1019.72 1019.84 1019.96 1020.00 1020.00 1020.00 1020.04 1020.04 1020.00 1020.00 1020.00 1020.00 1020.00 1020.04 1020.08 1020.08 1020.12
1018.00 1018.00 1018.00 1018.00 1018.00 1018.00 1018.00 1018.00 1018.00 1018.04 1018.04 1018.08 1018.12 1018.12 1018.16 1018.24 1018.28 1018.32 1018.40 1018.40 1018.40 1018.40 1018.40 1018.36 1018.40 1018.40 1018.40 1018.44 1018.52 1018.56 1018.60 1018.72 1018.76 1018.84 1018.88 1018.96 1018.96 1019.00 1019.00 1019.00 1019.04 1019.08 1019.12 1019.12 1019.12 1019.20 1019.28 1019.32 1019.44 1019.56 1019.68 1019.80 1019.92 1020.04 1020.12 1020.16 1020.24 1020.28 1020.28 1020.24 1020.20 1020.16 1020.12 1020.12 1020.12 1020.16 1020.20 1020.24 1020.28
1018.16 1018.12 1018.16 1018.16 1018.16 1018.16 1018.20 1018.20 1018.24 1018.24 1018.28 1018.28 1018.28 1018.32 1018.40 1018.40 1018.48 1018.56 1018.56 1018.56 1018.56 1018.56 1018.56 1018.56 1018.56 1018.60 1018.60 1018.64 1018.64 1018.72 1018.72 1018.84 1018.88 1018.96 1019.00 1019.08 1019.12 1019.12 1019.16 1019.20 1019.20 1019.24 1019.28 1019.28 1019.28 1019.36 1019.44 1019.48 1019.56 1019.72 1019.84 1020.00 1020.08 1020.16 1020.28 1020.40 1020.40 1020.44 1020.44 1020.40 1020.40 1020.32 1020.28 1020.28 1020.28 1020.28 1020.32 1020.40 1020.48
1018.36 1018.36 1018.36 1018.36 1018.36 1018.40 1018.40 1018.40 1018.44 1018.44 1018.44 1018.48 1018.48 1018.56 1018.56 1018.60 1018.68 1018.72 1018.72 1018.72 1018.72 1018.68 1018.68 1018.72 1018.72 1018.76 1018.80 1018.80 1018.80 1018.84 1018.84 1018.96 1019.00 1019.08 1019.12 1019.20 1019.24 1019.28 1019.32 1019.36 1019.36 1019.40 1019.44 1019.44 1019.48 1019.56 1019.56 1019.68 1019.76 1019.84 1020.00 1020.12 1020.24 1020.32 1020.40 1020.48 1020.56 1020.60 1020.60 1020.60 1020.56 1020.48 1020.40 1020.40 1020.40 1020.40 1020.48 1020.56 1020.68
1018.56 1018.56 1018.56 1018.56 1018.56 1018.56 1018.56 1018.60 1018.60 1018.60 1018.64 1018.68 1018.72 1018.76 1018.76 1018.80 1018.84 1018.84 1018.84 1018.80 1018.80 1018.80 1018.80 1018.84 1018.92 1018.96 1018.96 1018.96 1019.00 1019.00 1019.00 1019.08 1019.16 1019.28 1019.28 1019.36 1019.44 1019.44 1019.52 1019.56 1019.56 1019.56 1019.60 1019.64 1019.68 1019.72 1019.80 1019.84 1019.96 1020.04 1020.16 1020.28 1020.40 1020.52 1020.56 1020.64 1020.72 1020.72 1020.72 1020.72 1020.72 1020.64 1020.60 1020.56 1020.56 1020.60 1020.72 1020.76 1020.84
1018.84 1018.80 1018.76 1018.72 1018.72 1018.72 1018.72 1018.72 1018.76 1018.80 1018.84 1018.84 1018.88 1018.92 1018.92 1018.92 1018.92 1018.92 1018.92 1018.88 1018.92 1018.96 1019.00 1019.00 1019.08 1019.12 1019.12 1019.12 1019.16 1019.20 1019.24 1019.28 1019.40 1019.48 1019.56 1019.60 1019.72 1019.72 1019.76 1019.80 1019.80 1019.80 1019.80 1019.80 1019.84 1019.92 1020.00 1020.08 1020.16 1020.28 1020.40 1020.52 1020.64 1020.72 1020.80 1020.84 1020.84 1020.88 1020.88 1020.88 1020.84 1020.84 1020.84 1020.80 1020.84 1020.84 1020.92 1020.96 1021.00
1019.00 1019.00 1018.96 1018.88 1018.88 1018.88 1018.92 1018.92 1018.96 1019.00 1019.00 1019.00 1019.04 1019.04 1019.04 1019.00 1019.04 1019.04 1019.04 1019.04 1019.08 1019.12 1019.12 1019.16 1019.24 1019.28 1019.36 1019.44 1019.44 1019.48 1019.52 1019.60 1019.72 1019.80 1019.84 1019.88 1019.96 1020.00 1020.04 1020.00 1020.04 1020.04 1020.00 1020.04 1020.08 1020.16 1020.24 1020.32 1020.40 1020.56 1020.64 1020.72 1020.84 1020.96 1021.00 1021.00 1021.00 1021.00 1021.04 1021.04 1021.04 1021.00 1021.00 1021.04 1021.08 1021.12 1021.12 1021.16 1021.16
1019.12 1019.12 1019.12 1019.12 1019.08 1019.08 1019.12 1019.12 1019.12 1019.12 1019.16 1019.20 1019.20 1019.16 1019.12 1019.16 1019.16 1019.20 1019.16 1019.20 1019.24 1019.28 1019.32 1019.40 1019.48 1019.56 1019.68 1019.72 1019.76 1019.80 1019.88 1019.96 1020.04 1020.12 1020.16 1020.20 1020.24 1020.24 1020.24 1020.24 1020.28 1020.24 1020.24 1020.28 1020.32 1020.40 1020.48 1020.56 1020.68 1020.76 1020.84 1020.96 1021.04 1021.12 1021.16 1021.12 1021.12 1021.12 1021.16 1021.16 1021.16 1021.20 1021.20 1021.28 1021.28 1021.28 1021.32 1021.36 1021.36
1019.28 1019.28 1019.28 1019.28 1019.28 1019.32 1019.32 1019.32 1019.32 1019.32 1019.36 1019.32 1019.32 1019.32 1019.32 1019.32 1019.32 1019.32 1019.36 1019.36 1019.40 1019.48 1019.56 1019.68 1019.76 1019.84 1019.96 1020.00 1020.04 1020.08 1020.12 1020.20 1020.28 1020.36 1020.40 1020.40 1020.44 1020.40 1020.40 1020.40 1020.44 1020.40 1020.40 1020.44 1020.48 1020.56 1020.68 1020.76 1020.84 1020.92 1021.00 1021.12 1021.20 1021.28 1021.28 1021.28 1021.28 1021.28 1021.32 1021.36 1021.40 1021.44 1021.44 1021.44 1021.48 1021.48 1021.48 1021.56 1021.56
1019.44 1019.44 1019.44 1019.44 1019.44 1019.48 1019.52 1019.52 1019.52 1019.52 1019.48 1019.48 1019.48 1019.48 1019.48 1019.48 1019.52 1019.56 1019.56 1019.56 1019.64 1019.72 1019.84 1019.92 1020.00 1020.12 1020.16 1020.20 1020.28 1020.32 1020.40 1020.48 1020.56 1020.56 1020.56 1020.56 1020.60 1020.60 1020.56 1020.56 1020.60 1020.60 1020.56 1020.64 1020.72 1020.76 1020.84 1020.92 1021.00 1021.08 1021.16 1021.24 1021.32 1021.40 1021.44 1021.44 1021.44 1021.48 1021.56 1021.56 1021.60 1021.64 1021.64 1021.64 1021.64 1021.64 1021.64 1021.68 1021.64
1019.56 1019.56 1019.56 1019.56 1019.60 1019.64 1019.68 1019.68 1019.68 1019.68 1019.64 1019.64 1019.68 1019.72 1019.72 1019.72 1019.72 1019.76 1019.80 1019.84 1019.88 1020.00 1020.08 1020.16 1020.24 1020.28 1020.36 1020.44 1020.44 1020.56 1020.60 1020.68 1020.76 1020.80 1020.84 1020.80 1020.80 1020.76 1020.76 1020.80 1020.84 1020.80 1020.80 1020.84 1020.92 1021.00 1021.00 1021.12 1021.20 1021.28 1021.32 1021.44 1021.56 1021.56 1021.60 1021.64 1021.68 1021.72 1021.76 1021.76 1021.76 1021.76 1021.76 1021.76 1021.76 1021.72 1021.72 1021.72 1021.68
1019.72 1019.72 1019.72 1019.76 1019.76 1019.80 1019.84 1019.84 1019.84 1019.84 1019.80 1019.84 1019.84 1019.88 1019.92 1019.92 1019.96 1020.00 1020.04 1020.08 1020.12 1020.20 1020.32 1020.40 1020.48 1020.56 1020.60 1020.68 1020.72 1020.80 1020.84 1020.92 1020.96 1021.00 1021.04 1021.04 1021.04 1021.00 1021.00 1021.04 1021.04 1021.04 1021.04 1021.08 1021.12 1021.20 1021.24 1021.28 1021.40 1021.44 1021.56 1021.64 1021.72 1021.72 1021.76 1021.80 1021.84 1021.84 1021.84 1021.84 1021.84 1021.84 1021.84 1021.80 1021.76 1021.76 1021.76 1021.76 1021.72
1019.84 1019.84 1019.84 1019.88 1019.92 1019.96 1019.96 1019.96 1020.00 1020.00 1020.00 1020.00 1020.08 1020.12 1020.12 1020.12 1020.20 1020.28 1020.28 1020.32 1020.40 1020.52 1020.60 1020.68 1020.72 1020.80 1020.84 1020.92 1021.00 1021.08 1021.12 1021.20 1021.20 1021.24 1021.28 1021.28 1021.28 1021.24 1021.28 1021.28 1021.28 1021.28 1021.28 1021.28 1021.28 1021.32 1021.40 1021.44 1021.52 1021.60 1021.68 1021.76 1021.84 1021.84 1021.84 1021.88 1021.92 1021.92 1021.92 1021.92 1021.92 1021.88 1021.84 1021.84 1021.84 1021.84 1021.84 1021.84 1021.84
1020.00 1020.00 1020.00 1020.04 1020.08 1020.12 1020.12 1020.12 1020.12 1020.12 1020.16 1020.20 1020.28 1020.28 1020.32 1020.36 1020.44 1020.52 1020.56 1020.56 1020.64 1020.72 1020.84 1020.92 1021.00 1021.08 1021.16 1021.20 1021.28 1021.28 1021.36 1021.40 1021.44 1021.44 1021.44 1021.48 1021.44 1021.44 1021.44 1021.48 1021.48 1021.44 1021.44 1021.44 1021.44 1021.44 1021.52 1021.56 1021.56 1021.64 1021.72 1021.84 1021.88 1021.92 1021.96 1022.00 1022.00 1022.00 1022.00 1022.00 1022.00 1021.96 1021.92 1021.92 1021.96 1022.00 1022.00 1021.96 1021.84
1020.20 1020.20 1020.20 1020.20 1020.24 1020.24 1020.28 1020.28 1020.28 1020.28 1020.32 1020.36 1020.40 1020.40 1020.48 1020.56 1020.60 1020.72 1020.76 1020.84 1020.88 1021.00 1021.08 1021.16 1021.28 1021.36 1021.44 1021.44 1021.44 1021.48 1021.56 1021.56 1021.56 1021.56 1021.56 1021.64 1021.60 1021.56 1021.56 1021.60 1021.60 1021.60 1021.56 1021.52 1021.52 1021.56 1021.56 1021.56 1021.64 1021.68 1021.72 1021.84 1021.88 1021.92 1021.96 1022.00 1022.04 1022.04 1022.04 1022.08 1022.08 1022.08 1022.04 1022.00 1022.00 1022.00 1022.00 1021.96 1021.84
1020.44 1020.40 1020.40 1020.40 1020.40 1020.40 1020.40 1020.40 1020.44 1020.44 1020.44 1020.48 1020.56 1020.56 1020.64 1020.72 1020.80 1020.88 1020.96 1021.00 1021.12 1021.20 1021.28 1021.40 1021.48 1021.56 1021.60 1021.56 1021.60 1021.64 1021.72 1021.72 1021.72 1021.72 1021.72 1021.72 1021.72 1021.68 1021.68 1021.72 1021.76 1021.72 1021.68 1021.56 1021.56 1021.56 1021.56 1021.56 1021.64 1021.68 1021.72 1021.88 1021.92 1021.96 1022.00 1022.04 1022.08 1022.12 1022.16 1022.16 1022.20 1022.16 1022.12 1022.12 1022.08 1022.04 1022.04 1022.00 1021.88
1020.72 1020.68 1020.64 1020.64 1020.60 1020.60 1020.56 1020.56 1020.60 1020.60 1020.60 1020.64 1020.72 1020.72 1020.80 1020.84 1020.96 1021.04 1021.12 1021.20 1021.28 1021.36 1021.44 1021.52 1021.60 1021.72 1021.72 1021.72 1021.72 1021.76 1021.84 1021.84 1021.84 1021.84 1021.84 1021.84 1021.80 1021.80 1021.80 1021.84 1021.88 1021.84 1021.80 1021.72 1021.64 1021.60 1021.60 1021.60 1021.64 1021.68 1021.76 1021.88 1021.92 1021.96 1022.00 1022.12 1022.16 1022.28 1022.32 1022.28 1022.28 1022.28 1022.28 1022.24 1022.16 1022.12 1022.04 1022.04 1022.00
Thickness
5650 5650 5650 5649 5649 5649 5648 5649 5649 5648 5648 5648 5647 5647 5647 5647 5646 5645 5646 5645 5645 5644 5643 5642 5641 5641 5640 5638 5637 5636 5634 5633 5631 5627 5623 5621 5619 5617 5614 5612 5610 5608 5606 5603 5601 5600 5598 5596 5593 5589 5585 5582 5580 5579 5578 5577 5576 5574 5572 5571 5569 5569 5568 5567 5564 5564 5563 5561 5558
5647 5647 5647 5647 5646 5646 5645 5645 5645 5645 5645 5644 5644 5644 5644 5643 5642 5642 5642 5642 5641 5641 5640 5640 5639 5638 5637 5636 5635 5634 5631 5628 5626 5622 5619 5617 5615 5612 5609 5607 5604 5602 5600 5597 5595 5593 5592 5590 5587 5583 5580 5577 5575 5573 5571 5570 5569 5567 5565 5563 5561 5560 5560 5559 5559 5559 5558 5557 5554
5643 5643 5643 5643 5642 5642 5642 5642 5641 5641 5641 5641 5641 5641 5640 5640 5639 5638 5638 5639 5638 5638 5637 5636 5635 5635 5634 5633 5632 5630 5628 5624 5622 5619 5615 5612 5610 5607 5604 5602 5599 5597 5594 5591 5589 5586 5583 5581 5579 5576 5573 5570 5569 5566 5564 5562 5561 5559 5557 5555 5553 5552 5551 5551 5551 5550 5549 5548 5548
5639 5639 5639 5638 5638 5638 5638 5638 5638 5638 5638 5638 5638 5637 5637 5637 5636 5636 5635 5635 5635 5634 5634 5633 5632 5632 5631 5629 5628 5625 5623 5621 5619 5615 5611 5609 5606 5604 5601 5597 5595 5592 5589 5587 5583 5581 5577 5574 5572 5568 5566 5563 5561 5559 5557 5554 5553 5550 5548 5546 5545 5544 5542 5541 5540 5540 5540 5540 5539
5635 5635 5635 5635 5635 5635 5635 5634 5634 5634 5634 5635 5634 5634 5633 5633 5633 5632 5632 5631 5630 5630 5629 5628 5628 5628 5627 5625 5622 5619 5618 5617 5614 5611 5608 5605 5603 5600 5597 5593 5590 5587 5584 5581 5578 5575 5571 5568 5564 5562 5559 5556 5554 5552 5549 5547 5544 5541 5539 5537 5536 5534 5533 5532 5531 5530 5531 5530 5529
5631 5631 5631 5632 5631 5631 5631 5631 5631 5630 5631 5630 5630 5629 5629 5629 5629 5629 5628 5627 5626 5625 5625 5624 5624 5624 5623 5621 5617 5614 5612 5611 5609 5607 5604 5601 5599 5595 5592 5588 5585 5581 5578 5575 5572 5569 5565 5562 5559 5556 5553 5550 5547 5545 5543 5540 5537 5534 5532 5529 5527 5526 5525 5524 5523 5523 5523 5523 5522
5628 5627 5627 5628 5628 5628 5627 5627 5628 5627 5627 5626 5626 5625 5625 5625 5625 5624 5623 5622 5622 5621 5620 5620 5619 5619 5618 5617 5614 5611 5608 5606 5604 5602 5599 5597 5593 5590 5586 5583 5579 5576 5572 5569 5565 5562 5559 5556 5552 5549 5547 5543 5541 5538 5536 5533 5531 5527 5525 5522 5520 5518 5518 5517 5516 5516 5516 5516 5515
5624 5624 5623 5624 5624 5623 5623 5623 5623 5623 5623 5623 5622 5621 5621 5620 5620 5619 5619 5618 5617 5617 5616 5616 5615 5614 5613 5611 5609 5606 5603 5600 5598 5596 5593 5590 5587 5584 5581 5578 5574 5570 5567 5564 5560 5557 5553 5550 5546 5543 5540 5537 5534 5531 5529 5527 5524 5522 5518 5516 5513 5512 5511 5510 5510 5509 5509 5509 5509
5620 5620 5620 5620 5620 5620 5620 5620 5620 5619 5619 5618 5617 5616 5616 5615 5614 5613 5613 5612 5612 5612 5612 5610 5609 5608 5606 5604 5602 5600 5597 5595 5592 5589 5587 5584 5581 5578 5575 5572 5569 5565 5562 5558 5555 5552 5548 5544 5541 5537 5534 5532 5528 5525 5523 5521 5519 5516 5513 5510 5508 5506 5504 5503 5503 5503 5502 5503 5502
5616 5616 5616 5616 5616 5616 5617 5616 5616 5615 5615 5613 5612 5610 5610 5608 5608 5607 5607 5607 5607 5607 5606 5605 5603 5602 5599 5597 5595 5594 5591 5589 5587 5584 5581 5579 5576 5573 5570 5567 5563 5560 5556 5553 5550 5546 5542 5539 5535 5531 5528 5526 5524 5521 5518 5516 5513 5510 5507 5505 5502 5500 5499 5498 5497 5497 5497 5496 5497
5612 5612 5612 5612 5612 5612 5613 5612 5611 5610 5608 5607 5606 5605 5604 5602 5601 5601 5601 5601 5602 5601 5600 5598 5597 5596 5594 5592 5590 5588 5586 5583 5582 5580 5577 5574 5571 5568 5565 5562 5558 5555 5551 5547 5544 5541 5537 5533 5529 5526 5523 5521 5518 5516 5513 5511 5509 5505 5503 5500 5498 5496 5494 5493 5492 5491 5491 5490 5491
5607 5607 5608 5607 5608 5608 5607 5606 5605 5604 5602 5601 5600 5599 5598 5597 5596 5596 5596 5596 5597 5595 5594 5593 5591 5590 5588 5587 5584 5583 5581 5579 5577 5575 5572 5570 5567 5564 5560 5557 5553 5549 5546 5542 5539 5535 5532 5528 5524 5521 5518 5515 5513 5511 5509 5506 5503 5501 5498 5497 5495 5493 5491 5489 5487 5486 5485 5485 5485
5603 5603 5602 5602 5602 5602 5601 5600 5598 5597 5596 5595 5594 5594 5593 5592 5592 5592 5591 5591 5591 5590 5588 5587 5586 5585 5583 5582 5580 5578 5576 5574 5572 5570 5567 5565 5562 5558 5555 5552 5548 5544 5541 5537 5534 5530 5527 5523 5520 5517 5514 5512 5508 5507 5504 5501 5498 5496 5494 5494 5493 5492 5490 5486 5484 5482 5481 5481 5481
5597 5597 5597 5596 5596 5596 5595 5594 5593 5592 5590 5590 5589 5588 5588 5588 5587 5587 5587 5586 5585 5585 5584 5582 5582 5580 5578 5577 5575 5573 5571 5569 5567 5565 5563 5559 5557 5553 5550 5547 5543 5540 5536 5532 5529 5526 5522 5518 5515 5512 5510 5507 5504 5501 5499 5496 5493 5491 5491 5491 5491 5491 5488 5485 5482 5480 5479 5478 5477
5592 5591 5591 5590 5591 5590 5589 5588 5587 5586 5585 5585 5584 5584 5584 5583 5583 5583 5582 5581 5581 5580 5579 5577 5576 5575 5573 5572 5569 5568 5566 5564 5562 5560 5557 5554 5551 5548 5545 5542 5539 5535 5532 5528 5525 5522 5518 5514 5510 5507 5504 5501 5499 5497 5494 5491 5489 5488 5487 5487 5488 5488 5487 5485 5481 5479 5477 5475 5474
5587 5586 5585 5585 5585 5584 5584 5583 5582 5581 5581 5580 5579 5580 5579 5579 5578 5578 5577 5576 5576 5575 5574 5573 5572 5570 5569 5567 5566 5563 5561 5559 5557 5555 5552 5549 5546 5544 5540 5537 5534 5531 5527 5524 5521 5517 5513 5510 5506 5503 5499 5496 5494 5492 5489 5487 5486 5484 5483 5483 5484 5485 5485 5482 5479 5476 5474 5472 5471
5582 5581 5580 5580 5579 5579 5579 5578 5578 5576 5576 5575 5575 5574 5574 5573 5573 5572 5572 5572 5571 5571 5570 5569 5567 5566 5564 5563 5561 5559 5557 5555 5552 5550 5548 5545 5542 5539 5536 5533 5529 5526 5523 5520 5516 5513 5509 5507 5503 5499 5495 5492 5489 5487 5485 5483 5481 5480 5480 5480 5481 5481 5481 5478 5475 5473 5471 5469 5468
5577 5576 5576 5575 5575 5574 5574 5573 5572 5572 5571 5570 5570 5569 5569 5568 5568 5568 5567 5567 5567 5566 5566 5565 5563 5562 5561 5559 5557 5555 5553 5551 5548 5546 5543 5540 5538 5535 5532 5528 5526 5522 5519 5515 5512 5509 5506 5503 5500 5497 5493 5489 5486 5483 5481 5479 5477 5476 5476 5477 5477 5477 5476 5473 5471 5469 5467 5466 5465
5572 5571 5571 5570 5570 5570 5569 5568 5567 5567 5567 5566 5565 5565 5564 5564 5564 5563 5563 5563 5562 5562 5562 5561 5559 5558 5556 5554 5553 5550 5549 5546 5543 5542 5539 5536 5534 5530 5528 5525 5521 5518 5515 5512 5509 5505 5502 5499 5497 5494 5490 5486 5483 5480 5478 5476 5474 5473 5473 5473 5473 5472 5471 5469 5468 5466 5464 5463 5461
5567 5567 5566 5566 5566 5565 5564 5564 5563 5562 5561 5561 5560 5560 5560 5559 5560 5559 5559 5558 5558 5557 5557 5556 5555 5553 5552 5550 5548 5546 5544 5542 5540 5537 5535 5531 5529 5526 5524 5521 5518 5515 5512 5508 5505 5502 5499 5496 5493 5491 5487 5484 5481 5478 5475 5473 5471 5470 5469 5469 5468 5468 5467 5465 5463 5462 5460 5459 5458
5563 5562 5562 5561 5561 5561 5560 5559 5559 5558 5557 5556 5556 5556 5556 5555 5556 5555 5554 5554 5554 5553 5553 5552 5551 5549 5548 5546 5545 5543 5540 5537 5535 5533 5530 5528 5525 5522 5520 5517 5514 5511 5508 5505 5502 5500 5497 5493 5490 5487 5485 5482 5478 5476 5473 5471 5469 5468 5466 5466 5466 5465 5463 5461 5460 5458 5457 5456 5454
5559 5558 5557 5557 5556 5556 5555 5554 5554 5553 5553 5553 5553 5553 5553 5552 5552 5551 5550 5550 5550 5549 5548 5547 5546 5544 5543 5542 5540 5538 5536 5533 5531 5529 5526 5524 5521 5519 5516 5513 5510 5507 5504 5502 5499 5497 5494 5491 5488 5485 5481 5478 5476 5473 5470 5468 5466 5465 5464 5463 5462 5461 5460 5458 5457 5454 5453 5452 5452
5554 5553 5553 5552 5552 5551 5551 5550 5550 5550 5550 5550 5550 5549 5549 5548 5548 5547 5547 5546 5546 5545 5544 5543 5541 5540 5539 5538 5536 5534 5532 5529 5527 5525 5523 5520 5517 5515 5512 5509 5507 5504 5502 5499 5496 5494 5491 5488 5485 5482 5479 5476 5473 5470 5467 5465 5463 5462 5460 5459 5459 5457 5456 5454 5453 5451 5450 5450 5449
5550 5549 5549 5548 5548 5548 5547 5547 5547 5547 5546 5546 5546 5546 5545 5544 5544 5544 5543 5543 5542 5541 5540 5538 5537 5536 5535 5533 5532 5530 5528 5525 5523 5521 5519 5517 5514 5512 5509 5507 5505 5502 5499 5496 5494 5491 5489 5486 5483 5479 5477 5473 5470 5467 5464 5463 5461 5459 5457 5456 5455 5454 5452 5451 5449 5449 5448 5447 5447
5546 5545 5545 5545 5544 5544 5544 5544 5544 5544 5544 5543 5543 5543 5542 5541 5540 5540 5539 5538 5538 5537 5536 5535 5534 5533 5531 5529 5528 5526 5524 5522 5520 5518 5516 5514 5511 5509 5507 5505 5502 5500 5497 5495 5492 5490 5486 5484 5481 5478 5474 5471 5468 5465 5463 5460 5458 5457 5455 5453 5452 5451 5450 5449 5448 5447 5446 5445 5444
5542 5542 5542 5541 5541 5541 5541 5541 5540 5540 5540 5540 5540 5539 5539 5538 5537 5536 5535 5534 5534 5533 5533 5531 5530 5529 5527 5526 5524 5523 5521 5519 5517 5515 5513 5511 5508 5506 5504 5502 5500 5497 5495 5493 5490 5488 5485 5482 5479 5475 5472 5469 5466 5463 5460 5458 5456 5454 5453 5451 5450 5449 5448 5447 5446 5444 5443 5443 5442
5539 5539 5539 5538 5538 5538 5537 5537 5537 5537 5537 5537 5536 5536 5535 5534 5533 5533 5531 5531 5530 5530 5529 5528 5527 5526 5524 5523 5521 5520 5518 5516 5514 5512 5510 5507 5505 5503 5501 5499 5497 5494 5492 5490 5488 5485 5483 5480 5477 5474 5471 5468 5465 5462 5459 5456 5454 5452 5450 5448 5447 5447 5446 5445 5444 5442 5441 5440 5438
5535 5535 5535 5535 5534 5534 5534 5534 5534 5534 5533 5533 5533 5532 5531 5530 5530 5529 5528 5528 5528 5527 5526 5525 5523 5522 5520 5519 5518 5517 5515 5513 5511 5509 5506 5505 5503 5501 5498 5496 5494 5492 5489 5487 5485 5483 5480 5478 5475 5472 5470 5467 5463 5461 5457 5455 5452 5451 5449 5447 5446 5445 5445 5444 5443 5441 5439 5438 5437
5532 5532 5531 5532 5531 5531 5531 5531 5531 5530 5530 5530 5529 5528 5527 5527 5526 5526 5526 5525 5524 5523 5522 5521 5520 5519 5517 5516 5515 5514 5512 5510 5508 5506 5504 5502 5499 5497 5495 5493 5491 5489 5487 5485 5483 5480 5478 5475 5473 5470 5467 5464 5461 5458 5456 5454 5452 5450 5448 5447 5446 5444 5443 5442 5441 5440 5438 5437 5435
5528 5528 5528 5528 5528 5528 5528 5528 5528 5527 5527 5526 5526 5525 5525 5524 5524 5523 5523 5523 5522 5521 5519 5518 5517 5515 5514 5512 5511 5510 5508 5506 5504 5502 5500 5498 5495 5494 5491 5490 5487 5485 5484 5481 5480 5477 5475 5473 5470 5467 5464 5461 5459 5457 5454 5452 5451 5449 5447 5446 5445 5444 5443 5441 5440 5438 5436 5435 5434
5525 5525 5525 5526 5526 5526 5526 5525 5524 5524 5524 5523 5522 5522 5522 5522 5521 5521 5520 5519 5518 5517 5516 5515 5513 5512 5510 5509 5507 5506 5504 5502 5500 5498 5496 5494 5492 5490 5488 5486 5484 5483 5481 5478 5477 5474 5471 5469 5467 5464 5462 5459 5457 5455 5453 5451 5449 5448 5447 5445 5444 5443 5441 5440 5438 5437 5435 5434 5433
5522 5523 5523 5523 5523 5522 5522 5522 5521 5521 5520 5520 5520 5520 5520 5519 5518 5518 5517 5516 5515 5514 5512 5511 5509 5508 5506 5504 5503 5501 5500 5498 5496 5494 5492 5490 5488 5486 5484 5483 5481 5480 5478 5476 5474 5471 5469 5466 5464 5461 5459 5457 5454 5452 5451 5449 5448 5447 5445 5444 5442 5441 5440 5439 5437 5436 5435 5433 5432
5520 5520 5520 5520 5520 5519 5519 5519 5518 5518 5518 5518 5517 5517 5517 5516 5515 5515 5514 5513 5512 5510 5508 5507 5505 5504 5502 5500 5499 5498 5496 5494 5493 5490 5488 5487 5485 5484 5482 5480 5478 5477 5475 5473 5471 5469 5466 5463 5461 5459 5457 5455 5453 5451 5449 5448 5446 5445 5444 5442 5441 5439 5439 5437 5436 5435 5433 5432 5431
5517 5517 5517 5517 5517 5517 5516 5516 5515 5516 5515 5515 5514 5514 5513 5512 5512 5511 5510 5509 5508 5506 5504 5503 5501 5500 5498 5497 5496 5494 5492 5490 5489 5487 5485 5484 5482 5480 5479 5477 5475 5474 5472 5470 5468 5466 5464 5462 5459 5457 5455 5453 5451 5449 5448 5446 5445 5443 5442 5440 5438 5437 5436 5435 5434 5433 5432 5431 5430
5515 5515 5515 5515 5515 5514 5513 5513 5513 5512 5512 5512 5511 5510 5510 5509 5508 5507 5506 5505 5504 5503 5501 5499 5498 5497 5495 5494 5492 5491 5489 5487 5486 5484 5482 5480 5479 5478 5476 5475 5473 5471 5469 5467 5465 5463 5461 5459 5457 5455 5453 5451 5449 5447 5445 5443 5442 5440 5439 5438 5437 5436 5435 5434 5433 5432 5431 5431 5430
5513 5513 5512 5512 5511 5511 5511 5511 5510 5510 5509 5509 5508 5507 5506 5506 5505 5504 5503 5502 5500 5499 5498 5496 5495 5493 5492 5491 5489 5487 5486 5484 5482 5481 5478 5477 5476 5474 5473 5471 5470 5468 5466 5464 5462 5460 5458 5457 5455 5452 5450 5448 5446 5444 5443 5441 5440 5438 5437 5436 5435 5435 5434 5433 5432 5431 5430 5429 5429
5510 5510 5510 5509 5509 5509 5508 5508 5507 5507 5506 5505 5505 5504 5503 5502 5501 5500 5499 5498 5497 5496 5495 5493 5491 5490 5488 5487 5486 5483 5482 5480 5479 5477 5475 5474 5472 5471 5470 5468 5466 5465 5463 5462 5459 5458 5456 5454 5452 5450 5448 5446 5444 5442 5441 5440 5439 5438 5437 5436 5435 5434 5433 5433 5432 5431 5429 5429 5428
5508 5507 5507 5507 5507 5506 5505 5505 5504 5504 5503 5502 5502 5501 5500 5499 5498 5497 5496 5495 5494 5492 5491 5490 5488 5486 5485 5483 5482 5480 5479 5477 5475 5474 5473 5471 5470 5468 5467 5465 5463 5462 5460 5459 5457 5455 5454 5452 5450 5448 5447 5444 5443 5441 5440 5439 5438 5437 5436 5435 5434 5433 5432 5431 5430 5429 5428 5427 5426
5505 5505 5505 5504 5503 5503 5503 5502 5502 5502 5501 5500 5499 5498 5497 5496 5495 5494 5493 5492 5491 5489 5487 5486 5485 5483 5482 5480 5479 5478 5476 5474 5473 5472 5470 5468 5467 5465 5464 5462 5461 5459 5458 5457 5455 5453 5452 5450 5449 5447 5446 5443 5442 5441 5440 5438 5437 5436 5435 5434 5433 5432 5431 5430 5429 5428 5427 5426 5426
5501 5501 5502 5501 5501 5501 5500 5500 5499 5498 5498 5497 5496 5496 5495 5494 5493 5491 5490 5489 5487 5486 5485 5484 5482 5480 5478 5477 5476 5475 5473 5471 5470 5469 5468 5466 5464 5463 5462 5460 5458 5457 5455 5454 5454 5452 5450 5449 5448 5447 5445 5443 5442 5441 5439 5437 5436 5435 5434 5432 5431 5431 5430 5429 5428 5426 5426 5425 5425
5498 5498 5498 5498 5498 5497 5497 5497 5496 5496 5495 5495 5494 5493 5493 5491 5490 5489 5487 5486 5485 5484 5482 5481 5479 5478 5476 5475 5474 5472 5471 5469 5467 5466 5465 5463 5462 5460 5459 5457 5455 5454 5453 5453 5452 5451 5449 5448 5447 5446 5444 5442 5441 5440 5438 5436 5435 5433 5432 5431 5430 5429 5428 5427 5426 5426 5424 5424 5423